AAL3 KJFK-KLAX

Flight info

Callsign AAL3
Flight time N/A
Altitude 36000
Route RBV Q430 AIR J80 SPI/N0482F380 J80 MCI J24 SLN J102 ALS J44 RSK J64 TBC JASSE Q90 DNERO ANJLL4
Aircraft B77W/H-SDE1E2E3FGHIJ2J3J4J5M1RWXY/LB1D1

Departure

Time 2026-05-08 22:02
Airport John F. Kennedy International Airport (KJFK)

Arrival

Time N/A
Airport Los Angeles International Airport (KLAX)
Time Latitude Longitude Altitude Speed Heading
2026-05-08 21:22 40.64963 -73.78971 22 ft 0 kts 198°
2026-05-08 21:42 40.64970 -73.78968 22 ft 2 kts 198°
2026-05-08 21:42 40.64986 -73.78961 27 ft 2 kts 198°
2026-05-08 21:42 40.65001 -73.78957 26 ft 2 kts 120°
2026-05-08 21:42 40.65007 -73.78977 28 ft 2 kts 105°
2026-05-08 21:43 40.65008 -73.78996 28 ft 0 kts 58°
2026-05-08 21:47 40.65014 -73.78984 28 ft 3 kts 57°
2026-05-08 21:48 40.65036 -73.78937 26 ft 10 kts 58°
2026-05-08 21:48 40.65055 -73.78904 28 ft 2 kts 32°
2026-05-08 21:48 40.65071 -73.78899 28 ft 2 kts
2026-05-08 21:48 40.65107 -73.78906 28 ft 8 kts 356°
2026-05-08 21:49 40.65165 -73.78905 27 ft 8 kts
2026-05-08 21:49 40.65215 -73.78924 28 ft 8 kts 308°
2026-05-08 21:49 40.65237 -73.79001 30 ft 13 kts 289°
2026-05-08 21:49 40.65275 -73.79151 26 ft 18 kts 287°
2026-05-08 21:50 40.65287 -73.79290 27 ft 11 kts 264°
2026-05-08 21:50 40.65260 -73.79389 26 ft 12 kts 242°
2026-05-08 21:50 40.65207 -73.79516 27 ft 19 kts 241°
2026-05-08 21:50 40.65146 -73.79662 29 ft 17 kts 241°
2026-05-08 21:51 40.65062 -73.79774 28 ft 17 kts 208°
2026-05-08 21:51 40.64945 -73.79805 28 ft 17 kts 182°
2026-05-08 21:51 40.64823 -73.79806 26 ft 17 kts 177°
2026-05-08 21:51 40.64711 -73.79752 27 ft 17 kts 148°
2026-05-08 21:52 40.64612 -73.79660 27 ft 17 kts 145°
2026-05-08 21:52 40.64502 -73.79600 27 ft 17 kts 177°
2026-05-08 21:52 40.64381 -73.79592 28 ft 17 kts 182°
2026-05-08 21:52 40.64260 -73.79600 28 ft 17 kts 183°
2026-05-08 21:53 40.64139 -73.79607 28 ft 17 kts 178°
2026-05-08 21:53 40.64025 -73.79559 28 ft 17 kts 145°
2026-05-08 21:53 40.63949 -73.79437 28 ft 17 kts 121°
2026-05-08 21:53 40.63889 -73.79298 29 ft 17 kts 120°
2026-05-08 21:54 40.63826 -73.79156 31 ft 18 kts 121°
2026-05-08 21:54 40.63760 -73.79014 28 ft 18 kts 121°
2026-05-08 21:54 40.63699 -73.78879 27 ft 17 kts 120°
2026-05-08 21:54 40.63640 -73.78746 27 ft 17 kts 121°
2026-05-08 21:55 40.63579 -73.78615 27 ft 17 kts 121°
2026-05-08 21:55 40.63521 -73.78487 27 ft 16 kts 120°
2026-05-08 21:55 40.63469 -73.78373 26 ft 14 kts 120°
2026-05-08 21:56 40.63372 -73.78156 26 ft 14 kts 121°
2026-05-08 21:56 40.63334 -73.78042 29 ft 14 kts 103°
2026-05-08 21:56 40.63338 -73.77921 31 ft 11 kts 77°
2026-05-08 21:56 40.63318 -73.77826 27 ft 11 kts 117°
2026-05-08 21:57 40.63267 -73.77712 29 ft 19 kts 121°
2026-05-08 21:57 40.63194 -73.77551 27 ft 21 kts 121°
2026-05-08 21:57 40.63134 -73.77419 26 ft 16 kts 121°
2026-05-08 21:57 40.63078 -73.77296 28 ft 16 kts 120°
2026-05-08 21:58 40.63022 -73.77173 31 ft 16 kts 121°
2026-05-08 21:58 40.62965 -73.77092 30 ft 7 kts 176°
2026-05-08 21:58 40.62922 -73.77109 31 ft 5 kts 205°
2026-05-08 21:58 40.62906 -73.77120 31 ft 1 kts 208°
2026-05-08 21:59 40.62904 -73.77121 31 ft 0 kts 208°
2026-05-08 21:59 40.62902 -73.77123 26 ft 3 kts 208°
2026-05-08 21:59 40.62834 -73.77172 27 ft 8 kts 209°
2026-05-08 22:00 40.62820 -73.77187 27 ft 3 kts 231°
2026-05-08 22:00 40.62822 -73.77215 27 ft 0 kts 292°
2026-05-08 22:01 40.62823 -73.77218 27 ft 5 kts 291°
2026-05-08 22:01 40.62899 -73.77399 29 ft 42 kts 301°
2026-05-08 22:01 40.63186 -73.78031 29 ft 118 kts 301°
2026-05-08 22:01 40.63727 -73.79203 41 ft 175 kts 300°
2026-05-08 22:02 40.64325 -73.80605 680 ft 174 kts 302°
2026-05-08 22:02 40.64940 -73.81867 1721 ft 162 kts 301°
2026-05-08 22:02 40.65537 -73.83203 2236 ft 177 kts 287°
2026-05-08 22:02 40.65505 -73.84841 2724 ft 188 kts 249°
2026-05-08 22:03 40.64670 -73.86209 3374 ft 200 kts 218°
2026-05-08 22:03 40.63382 -73.86996 4024 ft 210 kts 206°
2026-05-08 22:03 40.61968 -73.87738 4499 ft 223 kts 206°
2026-05-08 22:03 40.60512 -73.88504 5259 ft 227 kts 207°
2026-05-08 22:04 40.59151 -73.89493 5907 ft 222 kts 229°
2026-05-08 22:04 40.58124 -73.90985 6562 ft 222 kts 232°
2026-05-08 22:04 40.57053 -73.92482 7266 ft 226 kts 231°
2026-05-08 22:04 40.55911 -73.93916 7959 ft 231 kts 223°
2026-05-08 22:05 40.54556 -73.95105 8619 ft 237 kts 218°
2026-05-08 22:05 40.53119 -73.96253 9228 ft 252 kts 218°
2026-05-08 22:05 40.51580 -73.97477 9897 ft 263 kts 218°
2026-05-08 22:05 40.49979 -73.98753 10528 ft 277 kts 219°
2026-05-08 22:06 40.48278 -74.00122 11001 ft 299 kts 219°
2026-05-08 22:06 40.46431 -74.01626 11012 ft 335 kts 219°
2026-05-08 22:06 40.44379 -74.03294 11001 ft 354 kts 218°
2026-05-08 22:06 40.42275 -74.04988 11005 ft 355 kts 218°
2026-05-08 22:07 40.40168 -74.06684 11007 ft 355 kts 218°
2026-05-08 22:07 40.38200 -74.08566 10988 ft 347 kts 229°
2026-05-08 22:07 40.36619 -74.10908 11025 ft 341 kts 239°
2026-05-08 22:07 40.35329 -74.13522 11771 ft 343 kts 246°
2026-05-08 22:08 40.34174 -74.16254 12896 ft 342 kts 248°
2026-05-08 22:08 40.33035 -74.18990 14012 ft 343 kts 249°
2026-05-08 22:08 40.31885 -74.21761 14890 ft 349 kts 248°
2026-05-08 22:08 40.30715 -74.24577 15695 ft 356 kts 248°
2026-05-08 22:09 40.29518 -74.27442 16536 ft 362 kts 248°
2026-05-08 22:09 40.28297 -74.30350 17022 ft 366 kts 248°
2026-05-08 22:09 40.27063 -74.33277 16969 ft 368 kts 247°
2026-05-08 22:09 40.25826 -74.36200 16993 ft 366 kts 247°
2026-05-08 22:10 40.24586 -74.39138 17535 ft 372 kts 247°
2026-05-08 22:10 40.23329 -74.42115 18430 ft 375 kts 247°
2026-05-08 22:10 40.22069 -74.45109 19293 ft 375 kts 248°
2026-05-08 22:10 40.21046 -74.48219 20166 ft 371 kts 256°
2026-05-08 22:11 40.20306 -74.51443 20995 ft 371 kts 260°
2026-05-08 22:11 40.19766 -74.54745 21759 ft 371 kts 265°
2026-05-08 22:11 40.19477 -74.58093 22531 ft 373 kts 267°
2026-05-08 22:11 40.19229 -74.61422 23277 ft 376 kts 268°
2026-05-08 22:12 40.18978 -74.64834 23931 ft 378 kts 268°
2026-05-08 22:12 40.18722 -74.68268 24574 ft 380 kts 268°
2026-05-08 22:12 40.18461 -74.71713 25221 ft 382 kts 267°
2026-05-08 22:12 40.18194 -74.75173 25841 ft 384 kts 267°
2026-05-08 22:13 40.17923 -74.78654 26433 ft 386 kts 268°
2026-05-08 22:13 40.17647 -74.82152 27003 ft 388 kts 268°
2026-05-08 22:13 40.17367 -74.85678 27556 ft 391 kts 268°
2026-05-08 22:13 40.17085 -74.89214 28097 ft 393 kts 268°
2026-05-08 22:14 40.16799 -74.92773 28617 ft 395 kts 268°
2026-05-08 22:14 40.16511 -74.96349 29113 ft 396 kts 268°
2026-05-08 22:14 40.16220 -74.99940 29566 ft 398 kts 268°
2026-05-08 22:14 40.15929 -75.03535 29985 ft 401 kts 268°
2026-05-08 22:15 40.15633 -75.07161 30296 ft 402 kts 268°
2026-05-08 22:15 40.15335 -75.10803 30664 ft 403 kts 268°
2026-05-08 22:15 40.15036 -75.14446 30999 ft 403 kts 268°
2026-05-08 22:15 40.14736 -75.18078 31411 ft 402 kts 267°
2026-05-08 22:16 40.14436 -75.21695 31851 ft 400 kts 267°
2026-05-08 22:16 40.13831 -75.28983 31934 ft 404 kts 267°
2026-05-08 22:17 40.13223 -75.36221 31931 ft 398 kts 267°
2026-05-08 22:17 40.12713 -75.42203 31935 ft 398 kts 267°
2026-05-08 22:18 40.12085 -75.49395 31942 ft 398 kts 267°
2026-05-08 22:18 40.11453 -75.56583 31947 ft 398 kts 267°
2026-05-08 22:19 40.10819 -75.63772 31943 ft 398 kts 267°
2026-05-08 22:19 40.10180 -75.70956 31945 ft 398 kts 267°
2026-05-08 22:20 40.09540 -75.78126 31949 ft 399 kts 267°
2026-05-08 22:20 40.08893 -75.85322 31950 ft 399 kts 267°
2026-05-08 22:21 40.08250 -75.92504 31951 ft 398 kts 267°
2026-05-08 22:21 40.07603 -75.99690 31948 ft 398 kts 267°
2026-05-08 22:22 40.06953 -76.06863 31954 ft 398 kts 267°
2026-05-08 22:22 40.06298 -76.14046 32120 ft 400 kts 267°
2026-05-08 22:22 40.05969 -76.17628 32662 ft 395 kts 267°
2026-05-08 22:23 40.05642 -76.21161 33226 ft 389 kts 267°
2026-05-08 22:23 40.05319 -76.24649 33775 ft 385 kts 267°
2026-05-08 22:23 40.04998 -76.28124 33935 ft 388 kts 267°
2026-05-08 22:24 40.04346 -76.35144 33940 ft 389 kts 267°
2026-05-08 22:24 40.03693 -76.42098 33939 ft 384 kts 267°
2026-05-08 22:25 40.03042 -76.49005 33942 ft 383 kts 267°
2026-05-08 22:25 40.02386 -76.55902 33939 ft 383 kts 266°
2026-05-08 22:26 40.01725 -76.62796 33940 ft 382 kts 267°
2026-05-08 22:26 40.01066 -76.69636 33934 ft 383 kts 266°
2026-05-08 22:27 40.00401 -76.76513 33934 ft 383 kts 266°
2026-05-08 22:27 39.99728 -76.83418 33936 ft 384 kts 266°
2026-05-08 22:28 39.99054 -76.90320 33947 ft 384 kts 266°
2026-05-08 22:28 39.98908 -76.97222 33948 ft 380 kts 279°
2026-05-08 22:29 40.00579 -77.03758 33948 ft 383 kts 291°
2026-05-08 22:29 40.02939 -77.10015 33949 ft 384 kts 292°
2026-05-08 22:30 40.05381 -77.16217 33951 ft 384 kts 293°
2026-05-08 22:30 40.07852 -77.22437 34037 ft 388 kts 293°
2026-05-08 22:30 40.09096 -77.25556 34312 ft 387 kts 293°
2026-05-08 22:31 40.10351 -77.28672 34575 ft 387 kts 293°
2026-05-08 22:31 40.11608 -77.31780 34838 ft 387 kts 293°
2026-05-08 22:31 40.12870 -77.34886 35051 ft 388 kts 293°
2026-05-08 22:31 40.14141 -77.38004 35272 ft 388 kts 293°
2026-05-08 22:32 40.15396 -77.41122 35499 ft 386 kts 290°
2026-05-08 22:32 40.16289 -77.44411 35676 ft 383 kts 282°
2026-05-08 22:32 40.16820 -77.47815 35853 ft 383 kts 278°
2026-05-08 22:33 40.17310 -77.54754 35944 ft 384 kts 270°
2026-05-08 22:33 40.17082 -77.61722 35960 ft 383 kts 269°
2026-05-08 22:34 40.16805 -77.68654 35957 ft 382 kts 269°
2026-05-08 22:34 40.16543 -77.75530 35948 ft 381 kts 269°
2026-05-08 22:35 40.16288 -77.82471 35962 ft 380 kts 269°
2026-05-08 22:35 40.16038 -77.89366 35957 ft 380 kts 269°
2026-05-08 22:36 40.15786 -77.96222 35963 ft 380 kts 269°
2026-05-08 22:36 40.15529 -78.03130 35964 ft 381 kts 269°
2026-05-08 22:37 40.15267 -78.10048 35958 ft 381 kts 269°
2026-05-08 22:37 40.15001 -78.16967 35960 ft 381 kts 268°
2026-05-08 22:38 40.14730 -78.23886 35964 ft 381 kts 268°
2026-05-08 22:38 40.14455 -78.30811 35950 ft 382 kts 268°
2026-05-08 22:39 40.14176 -78.37730 35942 ft 381 kts 268°
2026-05-08 22:39 40.13894 -78.44637 35952 ft 380 kts 268°
2026-05-08 22:40 40.13608 -78.51544 35963 ft 380 kts 268°